Location: Doschendorf
(50.0069°N, 11.0602°E)
Time: 16:02:28
(UTC+00:00)

Cosmos 1666 Rocket - Pass Details

Date: 17 November 2019
Orbit: 603 x 634 km, 82.5° (Epoch: 06 December)

Event Time Altitude Azimuth Distance (km) Brightness Sun altitude
Rises 16:53:55 0° 351° (N) 2,902 7.0 -13.4°
Reaches altitude 10° 16:56:10 10° 353° (N) 1,986 6.1 -13.8°
Maximum altitude 17:00:34 75° 79° (ENE) 639 3.4 -14.4°
Drops below altitude 10° 17:04:53 10° 165° (SSE) 1,954 6.1 -15.1°
Sets 17:07:05 0° 167° (SSE) 2,849 7.0 -15.5°
